Campbell Airport

Jump to: basic info | weather | frequencies | runways | comments

Related pages: nearby airports | nearby navaids | notams | map

Basic information (top)

Codes: KC81 C81
Location: lon 42.324600, lat -88.074097, elev 788 ft / 240 m msl
Status: small_airport
Scheduled airline service: no
Links: Wikipedia Mobile

Weather (top)

Current conditions for Waukegan Regional Airport 11nm (20km) ENE (rec'd 2014/10/24 16:55Z):

KUGN 241655Z 24005KT 8SM FEW009 13/09 A3003 RMK AO2 SLP170 T01280094

Airport forecast for Kenosha Regional Airport 18nm (32km) NNE (rec'd 2014/10/24 18:21Z):

TAF KENW 241720Z 2418/2518 23006KT 5SM BR OVC007 
     FM241900 21008KT P6SM SCT007 BKN009 
     FM242000 20008KT P6SM SCT008 BKN015 
     FM242200 21006KT P6SM SCT020 
     FM250200 21006KT P6SM BKN020 
     FM250400 21005KT 3SM BR BKN030 
     FM250700 25005KT 2SM BR BKN015 
     FM251200 28007KT 5SM BR SCT150 
     FM251500 29012KT P6SM FEW250

Frequencies (top)

Verify before use: may be inaccurate or out of date.

A/D: 120.55 MHz (CHICAGO APP/DEP)
UNIC: 122.7 MHz (CTAF/UNICOM)

Runways (top)

06/24: 3,573 x 40 ft (1,089 x 12 m) — other (COP) — not lighted — threshold 24 displaced 301 ft (92 m)

09/27: 3,270 x 40 ft (997 x 12 m) — paved — lighted

Latest comments (top)

My aviation birthplace.: I did my Private Pilot training here. [read]

More... (top)

See also NOTAMs and nearby airports and navaids, or visit the Campbell Airport page at the main OurAirports website..